TimeEDT,TemperatureF,Dew PointF,Humidity,Sea Level PressureIn,VisibilityMPH,Wind Direction,Wind SpeedMPH,Gust SpeedMPH,PrecipitationIn,Events,Conditions,WindDirDegrees,DateUTC
12:53 AM,73.0,66.9,81,30.08,10.0,East,5.8,-,N/A,,Clear,80,2013-04-03 04:53:00
1:53 AM,73.0,68.0,84,30.07,10.0,East,5.8,-,N/A,,Clear,90,2013-04-03 05:53:00
2:53 AM,73.0,66.9,81,30.06,10.0,East,5.8,-,N/A,,Clear,80,2013-04-03 06:53:00
3:53 AM,73.0,66.9,81,30.04,10.0,East,8.1,-,N/A,,Partly Cloudy,100,2013-04-03 07:53:00
4:53 AM,73.0,68.0,84,30.04,10.0,ESE,8.1,-,N/A,,Scattered Clouds,120,2013-04-03 08:53:00
5:53 AM,73.0,66.0,79,30.04,10.0,SE,9.2,-,N/A,,Clear,130,2013-04-03 09:53:00
6:53 AM,73.9,68.0,82,30.04,10.0,SE,11.5,-,N/A,,Clear,130,2013-04-03 10:53:00
7:53 AM,75.0,68.0,79,30.05,10.0,ESE,12.7,-,N/A,,Partly Cloudy,120,2013-04-03 11:53:00
8:53 AM,75.9,66.9,74,30.06,10.0,SE,13.8,-,N/A,,Clear,140,2013-04-03 12:53:00
9:53 AM,78.1,68.0,71,30.07,10.0,SE,13.8,-,N/A,,Clear,130,2013-04-03 13:53:00
10:53 AM,80.1,68.0,67,30.08,10.0,ESE,13.8,-,N/A,,Clear,120,2013-04-03 14:53:00
11:53 AM,80.1,68.0,67,30.06,10.0,SE,15.0,-,N/A,,Clear,130,2013-04-03 15:53:00
12:53 PM,81.0,68.0,65,30.05,10.0,SE,16.1,24.2,N/A,,Clear,140,2013-04-03 16:53:00
1:53 PM,81.0,68.0,65,30.05,10.0,ESE,13.8,19.6,N/A,,Scattered Clouds,120,2013-04-03 17:53:00
2:53 PM,82.0,66.9,60,30.02,10.0,SE,15.0,-,N/A,,Clear,140,2013-04-03 18:53:00
3:53 PM,80.1,68.0,67,30.01,10.0,SE,17.3,-,N/A,,Clear,140,2013-04-03 19:53:00
4:53 PM,81.0,68.0,65,30.01,10.0,SE,11.5,-,N/A,,Scattered Clouds,130,2013-04-03 20:53:00
5:53 PM,79.0,66.9,66,30.01,10.0,ESE,11.5,-,N/A,,Scattered Clouds,120,2013-04-03 21:53:00
6:53 PM,77.0,68.0,74,30.03,10.0,ESE,8.1,-,N/A,,Scattered Clouds,120,2013-04-03 22:53:00
7:53 PM,75.9,69.1,79,30.03,10.0,ESE,9.2,-,N/A,,Partly Cloudy,120,2013-04-03 23:53:00
8:53 PM,75.9,71.1,85,30.04,10.0,ESE,9.2,-,N/A,,Scattered Clouds,120,2013-04-04 00:53:00
9:53 PM,75.0,70.0,84,30.05,10.0,SE,11.5,-,N/A,,Partly Cloudy,130,2013-04-04 01:53:00
10:53 PM,75.0,71.1,87,30.05,10.0,ESE,13.8,-,N/A,,Clear,120,2013-04-04 02:53:00
11:53 PM,75.0,71.1,87,30.06,10.0,SE,10.4,-,N/A,,Clear,130,2013-04-04 03:53:00